Location: Unspecified
(0.0000°N, 0.0000°E)
Time: 21:00:30
(UTC+00:00)

A-11 Canister half - Visible Passes

Search period start: 11 December 2017 00:00
Search period end: 21 December 2017 00:00
Orbit: 1514 x 1686 km, 47.2° (Epoch: 10 December)

Date Brightness Start Highest point End Pass type
(mag) Time Alt. Az. Time Alt. Az. Time Alt. Az.
11 Dec 11.1 01:30:24 13° E 01:30:24 13° E 01:31:48 10° E visible
11 Dec 8.9 03:28:39 68° NW 03:30:17 86° SW 03:40:10 10° SE visible
11 Dec 10.6 05:29:36 10° W 05:35:24 17° SW 05:41:09 10° S visible
12 Dec 8.9 03:07:21 88° NE 03:07:22 88° NE 03:17:16 10° SE visible
12 Dec 10.5 05:06:01 10° W 05:12:25 19° SW 05:18:45 10° S visible
13 Dec 9.2 02:46:00 68° ESE 02:46:00 68° ESE 02:54:21 10° SE visible
13 Dec 10.4 04:44:13 14° W 04:49:26 21° SW 04:56:17 10° S visible
14 Dec 9.7 02:24:37 50° ESE 02:24:37 50° ESE 02:31:24 10° SE visible
14 Dec 10.2 04:22:50 19° WSW 04:26:28 23° SW 04:33:46 10° S visible
15 Dec 10.1 02:03:10 37° ESE 02:03:10 37° ESE 02:08:28 10° SE visible
15 Dec 10.1 04:01:23 24° WSW 04:03:30 26° SW 04:11:11 10° S visible
16 Dec 10.5 01:41:40 27° ESE 01:41:40 27° ESE 01:45:29 10° SE visible
16 Dec 10.0 03:39:53 28° SW 03:40:32 28° SW 03:48:35 10° S visible
17 Dec 10.9 01:20:07 19° ESE 01:20:07 19° ESE 01:22:28 10° SE visible
17 Dec 10.0 03:18:20 30° SW 03:18:20 30° SW 03:25:56 10° S visible
18 Dec 11.2 00:58:31 13° ESE 00:58:31 13° ESE 00:59:27 10° SE visible
18 Dec 10.1 02:56:43 31° SSW 02:56:43 31° SSW 03:03:16 10° SSE visible
19 Dec 10.2 02:35:03 30° SSW 02:35:03 30° SSW 02:40:34 10° SSE visible
20 Dec 10.4 02:13:20 27° S 02:13:20 27° S 02:17:50 10° SSE visible
